Location: Mainz-Finthen
(49.9906°N, 8.1713°E)
Time: 03:54:04
(UTC+00:00)

N. Korean satellite - Pass Details

Date: 04 October 2021
Orbit: 450 x 495 km, 97.3° (Epoch: 15 October)

Event Time Altitude Azimuth Distance (km) Brightness Sun altitude
Rises 03:58:50 0° 25° (NNE) 2,557 10.8 -15.7°
Reaches altitude 10° 04:01:16 10° 42° (NE) 1,679 10.1 -15.3°
Maximum altitude 04:04:05 21° 93° (E) 1,140 9.4 -14.9°
Drops below altitude 10° 04:06:55 10° 145° (SE) 1,683 9.6 -14.4°
Sets 04:09:21 0° 161° (SSE) 2,564 10.4 -14.1°
